Hourly Data Report for May 16, 2021

WINNIPEG THE FORKS
MANITOBA
Current Station Operator: ECCC - MSC

49°53'18.008" N
97°07'46.007" W
230.00 m
5023262
71579
XWN

Download Data

Hourly Data (May 2021)
Hourly Data Report for May 16, 2021
TIME
LST
Temp Definition
°C
Dew Point Definition
°C
Rel Hum Definition
%
Precip. Amount Definition
mm

Wind Dir Definition
10's deg

Wind Spd Definition
km/h
Visibility Definition
km
Stn Press Definition
kPa
Hmdx Definition


Wind Chill Definition


Weather Definition


00:00 15.5 7.3 58 0.0 20 3   98.64     LegendNANA
01:00 15.7 6.4 54 0.0 19 5   98.61     LegendNANA
02:00 15.4 6.3 55 0.0 22 3   98.58     LegendNANA
03:00 14.5 6.2 57 0.0 19 4   98.53     LegendNANA
04:00 13.9 5.9 58 0.0 19 7   98.52     LegendNANA
05:00 12.8 5.7 62 0.0 18 4   98.50     LegendNANA
06:00 13.5 5.7 59 0.0 19 4   98.51     LegendNANA
07:00 15.1 5.7 53 0.0 20 8   98.52     LegendNANA
08:00 18.6 5.8 43 0.0 20 11   98.50     LegendNANA
09:00 21.4 5.1 35 0.0 22 13   98.46     LegendNANA
10:00 24.5 5.8 30 0.0 23 8   98.40     LegendNANA
11:00 26.2 3.8 24 0.0 24 8   98.35 25   LegendNANA
12:00 27.1 0.8 18 0.0 23 13   98.29 25   LegendNANA
13:00 27.6 -1.2 15 0.0 25 10   98.25 25   LegendNANA
14:00 27.6 0.0 17 0.0 25 10   98.25 25   LegendNANA
15:00 27.7 -0.7 16 0.0 27 7   98.22 25   LegendNANA
16:00 27.6 0.1 17 0.0 28 6   98.19 25   LegendNANA
17:00 27.4 1.0 18 0.0 30 4   98.19 25   LegendNANA
18:00 26.5 1.7 20 0.0 31 6   98.23 25   LegendNANA
19:00 25.4 2.4 22 0.0 35 8   98.26     LegendNANA
20:00 18.9 6.2 44 0.0 3 13   98.45     LegendNANA
21:00 17.8 6.1 46 0.0 4 10   98.50     LegendNANA
22:00 17.3 5.9 47 0.0 4 7   98.53     LegendNANA
23:00 16.1 6.2 52 0.0 3 4   98.57     LegendNANA

Notes on Data Quality.

Legend

  • E = Estimated
  • M = Missing
  • NA = Not Available*
  • [empty] = Indicates an unobserved value
Date modified: